Weather in Port Sudan

Sudan     19°35′14″N   37°12′08″E
temp.,
°C
wind,
m/s
gust,
m/s
humid.,
%
clouds,
%
prec.,
mm/h
press.,
hPa
HPBL,
m
14 may, fri
fri1423:00+28n23650 0.0 100874
02:00+28nnw56570 0.0 1006146
05:00+27nnw45480 0.0 1007109
08:00+32nne45330 0.0 1009416
11:00+33ne66360 0.0 1009695
14:00+32ne77420 0.0 1006640
17:00+31nne66470 0.0 1006571
20:00+28n47610 0.0 1008227
15 may, sat
sat1523:00+28nw35520 0.0 1008128
02:00+28nw33400 0.0 100648
05:00+27nnw33370 0.0 100747
08:00+32n33290 0.0 1008354
11:00+33ne65360 0.0 1007676
14:00+32ene77420 0.0 1005445
17:00+30nne34480 0.0 1006470
20:00+28nnw45590 0.0 1007159
16 may, sun
sun1623:00+27wnw12550 0.0 100663
02:00+27nw22490 0.0 100537
05:00+28wsw22390 0.0 100511
08:00+32ne33300 0.0 1007350
11:00+32ne53380 0.0 1006557
14:00+33ene66380 0.0 1004387
17:00+31nne55520 0.0 1005416
20:00+28n45660 0.0 1006193
17 may, mon
mon1723:00+28sw22560 0.0 100644
02:00+27nw11550 0.0 100516
05:00+27wnw12450 0.0 100611
08:00+32ne21291 0.0 1007273
11:00+33ne64341 0.0 1007533
14:00+32ene65430 0.0 1005446
17:00+31ene22440 0.0 1006323
20:00+29n2255100 0.0 100731
18 may, tue
tue1823:00+29nnw344781 0.0 100747
02:00+29w22380 0.0 100511
05:00+28nne2238100 0.0 100612
08:00+32nne34320 0.0 1008311
11:00+34ne67310 0.0 1007671
14:00+33ne57350 0.0 1006547
17:00+32nne46440 0.0 1005375
20:00+29nnw33520 0.0 100728